Snowfall_Accumulation
0.0 0.0 0.0 0.0 0.0 0.0 0.0 0.0 0.0 0.0 0.0 0.0 0.0 0.0 0.0 0.0 0.0 0.0 0.0 0.0 0.0 0.0 0.0 0.0 0.0 0.0 0.0 0.0 0.0 0.0 0.0 0.0 0.0 0.0 0.0 0.0 0.0 0.0 0.0 0.0 0.0 0.0 0.0
0.0 0.0 0.0 0.0 0.0 0.0 0.0 0.0 0.0 0.0 0.0 0.0 0.0 0.0 0.0 0.0 0.0 0.0 0.0 0.0 0.0 0.0 0.0 0.0 0.0 0.0 0.0 0.0 0.0 0.0 0.0 0.0 0.0 0.1 0.4 0.5 0.3 0.0 0.0 0.0 0.0 0.0 0.0
0.0 0.0 0.0 0.0 0.0 0.0 0.0 0.0 0.0 0.0 0.0 0.0 0.0 0.0 0.0 0.0 0.0 0.0 0.0 0.0 0.0 0.0 0.0 0.0 0.0 0.0 0.0 0.0 0.0 0.2 0.3 0.1 1.0 0.7 0.4 0.1 0.3 0.0 1.3 0.1 0.0 0.0 0.0
0.0 0.0 0.0 0.0 0.0 0.0 0.0 0.0 0.0 0.0 0.0 0.0 0.0 0.0 0.0 0.0 0.0 0.0 0.0 0.0 0.0 0.0 0.0 0.0 0.0 0.0 0.0 0.4 0.7 1.7 1.5 1.1 0.6 0.3 0.4 0.4 0.9 0.6 0.4 0.6 0.2 0.2 0.0
0.0 0.0 0.0 0.0 0.0 0.0 0.0 0.0 0.0 0.0 0.0 0.0 0.0 0.0 0.0 0.0 0.0 0.0 0.0 0.0 0.0 0.0 0.0 0.2 0.1 0.6 0.4 0.4 1.0 1.0 0.8 0.7 1.3 2.5 1.4 1.1 0.3 0.2 0.2 0.1 0.3 0.1 0.1
0.0 0.0 0.0 0.0 0.0 0.0 0.0 0.0 0.0 0.0 0.0 0.0 0.0 0.0 0.0 0.0 0.0 0.0 0.0 0.0 0.0 0.0 0.0 0.4 1.2 1.7 1.2 0.5 0.1 0.1 0.0 1.4 2.2 1.4 1.7 0.2 0.0 0.1 0.0 0.1 0.6 0.8 1.0
0.0 0.0 0.0 0.0 0.0 0.0 0.0 0.0 0.0 0.0 0.0 0.0 0.0 0.0 0.0 0.0 0.0 0.0 0.0 0.0 0.0 2.3 2.8 3.3 2.1 1.4 1.9 1.1 0.4 0.2 0.5 0.1 0.0 0.3 0.1 0.1 0.0 0.0 1.0 0.7 0.9 1.4 0.7
0.0 0.0 0.0 0.0 0.0 0.0 0.0 0.0 0.0 0.0 0.0 0.0 0.0 0.2 0.0 0.0 0.0 0.4 1.6 3.3 3.3 4.0 3.4 2.6 2.0 1.6 0.9 0.4 0.5 0.3 0.1 0.0 0.0 0.0 0.1 0.2 0.5 0.1 0.5 0.9 0.7 0.9 0.3
0.0 0.0 0.0 0.0 0.0 0.0 0.0 0.0 0.0 0.0 1.1 3.5 2.7 3.6 4.1 4.1 0.7 0.8 2.3 3.0 2.1 1.2 0.5 0.0 0.0 0.0 0.0 0.0 0.2 0.1 0.0 0.0 0.0 0.0 0.1 0.0 0.0 0.0 0.0 0.6 2.2 3.4 2.1
1.0 1.0 0.5 0.0 1.0 2.7 2.3 4.8 2.5 1.7 4.9 3.8 4.7 4.2 1.9 2.3 0.6 0.6 0.4 0.2 0.1 0.0 0.0 0.0 0.0 0.0 0.0 0.1 0.1 0.1 0.3 0.0 0.5 0.2 0.0 0.0 0.0 0.0 0.0 0.0 1.6 7.3 5.1
0.1 0.3 0.6 0.7 1.0 2.1 3.9 3.6 2.2 2.5 3.3 3.6 3.3 2.5 1.3 0.4 0.1 0.0 0.0 0.0 0.1 0.0 0.0 0.0 0.0 0.0 0.1 0.0 0.0 0.1 0.4 0.2 0.1 0.1 0.2 0.1 0.0 0.0 0.7 0.5 0.2 3.4 9.0
0.0 0.0 0.5 0.9 0.7 1.0 0.9 2.0 1.8 0.6 0.3 0.0 0.0 0.0 0.0 0.0 0.0 0.0 0.0 0.0 0.0 0.0 0.1 0.0 0.1 0.1 0.0 0.0 0.0 0.0 0.1 0.1 0.4 0.9 0.9 0.9 0.8 0.3 0.1 0.4 0.4 0.2 0.6
0.0 0.0 0.0 0.0 0.0 0.0 0.0 0.0 0.0 0.0 0.0 0.0 0.0 0.0 0.0 0.0 0.1 0.0 0.0 0.0 0.0 0.1 0.0 0.1 0.0 0.0 0.0 0.0 0.0 0.1 0.0 0.2 1.2 1.2 0.8 0.6 0.3 0.6 0.9 1.3 1.1 1.3 1.2
0.0 0.0 0.0 0.0 0.0 0.0 0.0 0.0 0.0 0.0 0.0 0.0 0.0 0.0 0.0 0.1 0.0 0.0 0.0 0.0 0.0 0.0 0.0 0.2 0.2 0.3 0.1 0.1 0.0 0.1 0.0 0.2 1.3 1.9 1.7 0.7 0.9 1.1 1.2 0.9 2.5 1.5 3.6
0.0 0.0 0.0 0.0 0.0 0.0 0.0 0.0 0.0 0.0 0.0 0.0 0.1 0.1 0.3 0.2 0.0 0.0 0.0 0.2 0.3 0.3 0.6 0.7 0.4 1.1 0.9 0.6 0.7 0.5 0.8 1.2 1.7 1.2 1.8 1.7 1.2 1.2 1.2 1.1 2.7 3.4 6.2
0.0 0.0 0.0 0.0 0.0 0.0 0.0 0.0 0.0 0.0 0.0 0.0 0.0 0.0 0.1 0.0 0.0 0.0 0.1 0.1 0.2 0.2 2.0 2.2 1.6 1.5 1.6 1.3 0.9 0.6 0.9 0.9 1.2 1.8 2.7 2.8 4.8 4.3 3.4 4.2 3.7 5.6 7.5
0.0 0.0 0.0 0.0 0.0 0.0 0.0 0.0 0.1 0.0 0.0 0.0 0.0 0.0 0.0 0.0 0.0 0.1 0.1 0.3 0.2 0.4 2.4 0.9 1.6 2.2 2.5 2.1 2.1 2.6 2.8 1.2 2.2 5.2 7.4 7.4 8.2 7.8 6.7 6.4 5.5 6.3 7.3
0.0 0.0 0.0 0.0 0.0 0.0 0.1 0.1 0.1 0.7 0.6 0.3 0.0 0.0 0.0 0.0 0.0 0.2 0.4 0.4 1.3 0.8 1.1 1.5 1.8 2.5 2.9 3.6 4.4 3.5 3.9 4.8 6.2 7.2 9.4 10.5 11.6 13.1 10.2 9.0 7.4 9.7 9.5
0.0 0.0 0.0 0.0 0.0 0.0 0.1 0.1 0.4 0.4 0.3 0.4 0.5 0.1 0.1 0.0 0.1 0.2 0.2 1.3 1.8 1.0 1.4 2.1 2.4 3.3 3.6 3.0 4.1 5.7 6.2 7.2 7.9 9.7 8.4 9.8 10.1 14.6 11.2 7.7 8.4 5.9 8.8
0.0 0.0 0.0 0.0 0.1 0.1 0.1 0.6 0.9 0.8 1.1 1.3 1.2 0.4 0.5 2.3 3.4 0.7 0.8 0.8 1.2 1.7 1.8 2.0 1.7 2.0 2.7 3.5 4.8 5.4 6.5 5.6 6.7 6.3 6.6 8.0 9.1 11.8 13.2 10.3 8.7 11.7 7.8
0.1 0.0 0.1 0.2 0.3 0.6 0.7 1.0 0.9 1.6 1.6 1.3 0.9 0.1 0.5 5.0 4.6 1.4 0.5 1.2 1.5 2.0 2.0 2.5 1.9 2.5 2.6 3.9 5.4 5.7 5.5 4.7 5.1 7.3 7.7 8.0 9.6 12.4 7.7 9.4 10.2 9.1 9.5
0.2 0.3 0.1 0.4 0.4 0.7 0.9 1.2 1.2 1.3 1.2 1.6 0.9 1.2 0.4 2.0 2.0 1.9 1.8 1.2 1.2 1.2 1.7 3.8 3.0 3.5 5.3 7.5 8.1 7.7 5.5 4.6 5.0 8.2 8.3 7.6 9.4 9.3 9.0 9.9 9.9 10.2 8.9
1.2 1.4 0.7 1.0 0.8 1.2 1.6 0.9 0.9 1.1 1.6 1.3 1.3 2.0 3.4 3.1 2.1 2.3 2.1 1.4 1.3 1.8 1.6 3.5 5.4 3.9 2.8 5.5 8.4 11.6 12.3 7.1 7.4 11.0 13.7 10.3 9.0 9.7 11.3 13.1 9.8 10.4 7.8
1.5 1.3 1.6 1.2 1.3 2.4 2.5 2.7 2.3 2.8 2.9 2.5 2.1 2.3 2.3 2.6 2.8 2.0 2.6 2.8 2.9 2.8 2.5 4.0 4.7 5.4 5.9 6.0 6.3 7.4 10.1 9.9 11.6 13.8 17.1 20.0 14.3 9.5 10.3 11.0 9.2 8.6 8.4
1.2 2.6 3.0 3.3 3.5 4.1 4.1 2.8 1.9 2.2 2.9 2.3 1.9 2.7 2.4 2.5 2.9 2.4 2.9 4.1 4.5 4.2 3.0 3.8 4.1 5.5 6.2 7.4 6.9 7.2 7.7 8.0 11.3 13.1 14.3 13.5 12.7 9.4 10.0 9.4 8.0 8.3 8.0
2.6 2.8 4.3 4.5 4.2 3.2 4.4 4.5 3.9 3.3 3.9 3.5 2.8 2.8 3.0 3.3 2.6 3.2 3.2 4.3 5.0 4.6 4.2 4.5 4.9 6.0 5.8 5.6 5.0 5.8 5.3 4.4 6.0 5.2 10.4 14.3 13.7 10.7 9.4 10.3 9.0 10.7 9.1